• In Deutschland
  • Länderverzeichnis
  • Für 7 Tage
  • Wassertemperatur
  • Satellitenkarten
  • Wetterkarte
  • Widgets
  • user-avatar
    Anmelden

    Stündliche Wetter Lüdinghausen

    Heute, 25 September, Dienstag

    Zeit Temperatur Niederschläge Wind Luftdruck Luftfeuchtigkeit
    00:00 +8°C° 0 mm 1 m/S 773 mmHg 85%
    01:00 +8°C° 0 mm 1 m/S 773 mmHg 85%
    02:00 +8°C° 0 mm 1 m/S 773 mmHg 86%
    03:00 +8°C° 0 mm 1 m/S 773 mmHg 87%
    04:00 +8°C° 0 mm 1 m/S 773 mmHg 87%
    05:00 +8°C° 0 mm 1 m/S 773 mmHg 87%
    06:00 +8°C° 0 mm 1 m/S 773 mmHg 87%
    07:00 +9°C° 0 mm 1 m/S 774 mmHg 79%
    08:00 +11°C° 0 mm 1 m/S 774 mmHg 71%
    09:00 +13°C° 0 mm 1 m/S 774 mmHg 64%
    10:00 +14°C° 0 mm 1 m/S 774 mmHg 58%
    11:00 +15°C° 0 mm 1 m/S 774 mmHg 53%
    12:00 +18°C° 0 mm 1 m/S 774 mmHg 48%
    13:00 +18°C° 0 mm 1 m/S 773 mmHg 47%
    14:00 +18°C° 0 mm 1 m/S 773 mmHg 46%
    15:00 +18°C° 0 mm 1 m/S 773 mmHg 46%
    16:00 +14°C° 0 mm 0 m/S 773 mmHg 50%
    17:00 +13°C° 0 mm 0 m/S 773 mmHg 54%
    18:00 +11°C° 0 mm 0 m/S 773 mmHg 59%
    19:00 +12°C° 0 mm 1 m/S 773 mmHg 60%
    20:00 +11°C° 0 mm 1 m/S 773 mmHg 62%
    21:00 +11°C° 0 mm 1 m/S 773 mmHg 64%
    22:00 +10°C° 0 mm 2 m/S 773 mmHg 65%
    23:00 +9°C° 0 mm 2 m/S 773 mmHg 65%

    Morgen, 26 September, Mittwoch

    Zeit Temperatur Niederschläge Wind Luftdruck Luftfeuchtigkeit
    00:00 +9°C° 0 mm 2 m/S 772 mmHg 66%
    01:00 +9°C° 0 mm 2 m/S 772 mmHg 67%
    02:00 +8°C° 0 mm 2 m/S 772 mmHg 67%
    03:00 +8°C° 0 mm 2 m/S 772 mmHg 68%
    04:00 +8°C° 0 mm 2 m/S 772 mmHg 67%
    05:00 +8°C° 0 mm 3 m/S 772 mmHg 67%
    06:00 +8°C° 0 mm 3 m/S 772 mmHg 67%
    07:00 +10°C° 0 mm 3 m/S 771 mmHg 61%
    08:00 +12°C° 0 mm 3 m/S 771 mmHg 55%
    09:00 +14°C° 0 mm 4 m/S 771 mmHg 48%
    10:00 +15°C° 0 mm 4 m/S 771 mmHg 45%
    11:00 +17°C° 0 mm 4 m/S 770 mmHg 42%
    12:00 +19°C° 0 mm 4 m/S 770 mmHg 39%
    13:00 +19°C° 0 mm 4 m/S 769 mmHg 39%
    14:00 +19°C° 0 mm 3 m/S 769 mmHg 40%
    15:00 +19°C° 0 mm 3 m/S 769 mmHg 40%
    16:00 +18°C° 0 mm 3 m/S 769 mmHg 44%
    17:00 +16°C° 0 mm 2 m/S 769 mmHg 48%
    18:00 +15°C° 0 mm 2 m/S 769 mmHg 52%
    19:00 +14°C° 0 mm 2 m/S 769 mmHg 53%
    20:00 +14°C° 0 mm 2 m/S 769 mmHg 54%
    21:00 +14°C° 0 mm 2 m/S 769 mmHg 55%
    22:00 +13°C° 0 mm 2 m/S 769 mmHg 55%
    23:00 +13°C° 0 mm 2 m/S 769 mmHg 56%

    übermorgen, 27 September, Donnerstag

    Zeit Temperatur Niederschläge Wind Luftdruck Luftfeuchtigkeit
    00:00 +13°C° 0 mm 2 m/S 769 mmHg 57%
    01:00 +12°C° 0 mm 2 m/S 769 mmHg 57%
    02:00 +12°C° 0 mm 2 m/S 769 mmHg 58%
    03:00 +12°C° 0 mm 2 m/S 768 mmHg 58%
    04:00 +12°C° 0 mm 2 m/S 768 mmHg 59%
    05:00 +12°C° 0 mm 2 m/S 768 mmHg 59%
    06:00 +12°C° 0 mm 2 m/S 768 mmHg 60%
    07:00 +14°C° 0 mm 2 m/S 768 mmHg 56%
    08:00 +15°C° 0 mm 2 m/S 768 mmHg 52%
    09:00 +17°C° 0 mm 2 m/S 767 mmHg 49%
    10:00 +19°C° 0 mm 2 m/S 767 mmHg 45%
    11:00 +20°C° 0 mm 3 m/S 767 mmHg 42%
    12:00 +22°C° 0 mm 3 m/S 766 mmHg 39%
    13:00 +22°C° 0 mm 3 m/S 765 mmHg 39%
    14:00 +23°C° 0 mm 2 m/S 765 mmHg 39%
    15:00 +23°C° 0 mm 2 m/S 764 mmHg 40%
    16:00 +20°C° 0 mm 2 m/S 764 mmHg 44%
    17:00 +18°C° 0 mm 2 m/S 764 mmHg 49%
    18:00 +18°C° 0 mm 1 m/S 763 mmHg 53%
    19:00 +16°C° 0 mm 2 m/S 763 mmHg 56%
    20:00 +15°C° 0 mm 2 m/S 763 mmHg 58%
    21:00 +15°C° 0 mm 2 m/S 763 mmHg 61%
    22:00 +14°C° 0 mm 2 m/S 763 mmHg 64%
    23:00 +13°C° 0 mm 2 m/S 762 mmHg 67%

    28 September, Freitag

    Zeit Temperatur Niederschläge Wind Luftdruck Luftfeuchtigkeit
    00:00 +13°C° 0 mm 2 m/S 762 mmHg 70%
    01:00 +12°C° 0 mm 2 m/S 762 mmHg 72%
    02:00 +12°C° 0 mm 2 m/S 762 mmHg 74%
    03:00 +10°C° 0 mm 2 m/S 761 mmHg 77%
    04:00 +11°C° 0 mm 1 m/S 762 mmHg 78%
    05:00 +11°C° 0 mm 1 m/S 762 mmHg 80%
    06:00 +11°C° 0 mm 1 m/S 762 mmHg 82%
    07:00 +12°C° 0 mm 2 m/S 762 mmHg 79%
    08:00 +14°C° 0 mm 2 m/S 763 mmHg 75%
    09:00 +14°C° 0 mm 3 m/S 763 mmHg 72%
    10:00 +16°C° 0 mm 3 m/S 763 mmHg 70%
    11:00 +16°C° 0 mm 3 m/S 763 mmHg 68%
    12:00 +16°C° 0 mm 3 m/S 764 mmHg 66%
    13:00 +16°C° 0 mm 3 m/S 764 mmHg 64%
    14:00 +15°C° 0 mm 4 m/S 764 mmHg 61%
    15:00 +15°C° 0 mm 4 m/S 764 mmHg 59%
    16:00 +14°C° 0 mm 4 m/S 764 mmHg 60%
    17:00 +13°C° 0 mm 4 m/S 764 mmHg 61%
    18:00 +12°C° 0 mm 4 m/S 765 mmHg 62%
    19:00 +11°C° 0 mm 4 m/S 765 mmHg 66%
    20:00 +10°C° 0 mm 3 m/S 766 mmHg 70%
    21:00 +9°C° 0 mm 3 m/S 766 mmHg 75%
    22:00 +8°C° 0 mm 2 m/S 766 mmHg 76%
    23:00 +8°C° 0 mm 2 m/S 767 mmHg 77%

    29 September, Samstag

    Zeit Temperatur Niederschläge Wind Luftdruck Luftfeuchtigkeit
    00:00 +7°C° 0 mm 2 m/S 767 mmHg 79%
    01:00 +7°C° 0 mm 2 m/S 767 mmHg 80%
    02:00 +8°C° 0 mm 1 m/S 767 mmHg 82%
    03:00 +8°C° 0 mm 1 m/S 767 mmHg 83%
    04:00 +8°C° 0 mm 1 m/S 767 mmHg 84%
    05:00 +7°C° 0 mm 1 m/S 767 mmHg 84%
    06:00 +7°C° 0 mm 1 m/S 767 mmHg 85%
    07:00 +9°C° 0 mm 1 m/S 767 mmHg 75%
    08:00 +10°C° 0 mm 2 m/S 767 mmHg 66%
    09:00 +13°C° 0 mm 2 m/S 768 mmHg 57%
    10:00 +14°C° 0 mm 2 m/S 767 mmHg 53%
    11:00 +14°C° 0 mm 2 m/S 767 mmHg 48%
    12:00 +14°C° 0 mm 3 m/S 767 mmHg 44%
    13:00 +14°C° 0 mm 3 m/S 766 mmHg 43%
    14:00 +16°C° 0 mm 2 m/S 766 mmHg 43%
    15:00 +16°C° 0 mm 2 m/S 766 mmHg 42%
    16:00 +14°C° 0 mm 2 m/S 766 mmHg 47%
    17:00 +13°C° 0 mm 2 m/S 766 mmHg 51%
    18:00 +10°C° 0 mm 2 m/S 766 mmHg 56%
    19:00 +10°C° 0 mm 2 m/S 766 mmHg 58%
    20:00 +9°C° 0 mm 2 m/S 766 mmHg 61%
    21:00 +10°C° 0 mm 1 m/S 766 mmHg 63%
    22:00 +9°C° 0 mm 1 m/S 766 mmHg 65%
    23:00 +9°C° 0 mm 1 m/S 765 mmHg 66%

    30 September, Sonntag

    Zeit Temperatur Niederschläge Wind Luftdruck Luftfeuchtigkeit
    00:00 +9°C° 0 mm 1 m/S 765 mmHg 67%
    01:00 +8°C° 0 mm 1 m/S 765 mmHg 68%
    02:00 +8°C° 0 mm 1 m/S 765 mmHg 68%
    03:00 +8°C° 0 mm 1 m/S 765 mmHg 68%
    04:00 +8°C° 0 mm 1 m/S 765 mmHg 69%
    05:00 +8°C° 0 mm 1 m/S 765 mmHg 69%
    06:00 +7°C° 0 mm 0 m/S 765 mmHg 69%
    07:00 +9°C° 0 mm 0 m/S 765 mmHg 63%
    08:00 +11°C° 0 mm 1 m/S 765 mmHg 57%
    09:00 +13°C° 0 mm 1 m/S 765 mmHg 51%
    10:00 +14°C° 0 mm 1 m/S 764 mmHg 48%
    11:00 +15°C° 0 mm 1 m/S 764 mmHg 45%
    12:00 +16°C° 0 mm 1 m/S 764 mmHg 42%
    13:00 +16°C° 0 mm 2 m/S 764 mmHg 44%
    14:00 +16°C° 0 mm 2 m/S 763 mmHg 45%
    15:00 +16°C° 0 mm 3 m/S 763 mmHg 46%
    16:00 +14°C° 0 mm 3 m/S 763 mmHg 52%
    17:00 +13°C° 0 mm 2 m/S 764 mmHg 59%
    18:00 +12°C° 0 mm 2 m/S 764 mmHg 66%
    19:00 +10°C° 0 mm 2 m/S 764 mmHg 70%
    20:00 +10°C° 0 mm 2 m/S 765 mmHg 74%
    21:00 +9°C° 0 mm 2 m/S 765 mmHg 78%
    22:00 +9°C° 0 mm 2 m/S 765 mmHg 79%
    23:00 +9°C° 0 mm 2 m/S 765 mmHg 80%
    Mehr zeigen